Regional Weather Roundup
Issued by NWS Nashville, TN

Current Version | Previous Version | Text Only | Print | Product List | Glossary Off
Versions: 1 2 3 4 5 6 7 8 9 10 11 12 13 14 15 16 17 18 19 20 21 22 23 24 25 26 27 28 29 30 31 32 33 34 35 36 37 38 39 40 41 42 43 44 45 46 47 48 49 50

000
ASUS44 KOHX 071010
RWROHX
MIDDLE TENNESSEE HOURLY WEATHER ROUNDUP
NATIONAL WEATHER SERVICE NASHVILLE TN
400 AM CST SUN FEB 07 2016

NOTE: "FAIR" INDICATES FEW OR NO CLOUDS BELOW 12,000 FEET WITH
NO SIGNIFICANT WEATHER AND/OR OBSTRUCTIONS TO VISIBILITY.

* THESE REPORTS ARE NOT UNDER NWS QUALITY CONTROL AND MAY NOT
  REPORT WEATHER SUCH AS PRECIPITATION AND FOG.


TNZ005>011-023>034-057-059-062>066-078-080-071100
...NORTHERN MIDDLE TENNESSEE...

CITY           SKY/WX    TMP DP  RH WIND       PRES   REMARKS
CLARKSVILLE    CLEAR     29  25  85 CALM      30.20F
CROSSVILLE     CLEAR     28  20  71 NW5       30.16F WCI  23
DICKSON        CLEAR     30  19  64 W5        30.19F WCI  25
LEBANON        CLEAR     24  22  92 CALM      30.18F
LIVINGSTON     CLEAR     34  18  52 CALM      30.17F
NASHVILLE      CLEAR     29  23  78 CALM      30.21F
PORTLAND       CLEAR    N/A N/A N/A CALM      30.18F
ROCKWOOD       CLEAR     34  19  54 N7        30.14F WCI  28
SMYRNA         CLEAR     25  25 100 CALM      30.22F
SPARTA         CLEAR     21  21 100 CALM      30.18S
$$
TNZ056-058-060-061-075>077-079-093>097-071100
...SOUTHERN MIDDLE TENNESSEE...

CITY           SKY/WX    TMP DP  RH WIND       PRES   REMARKS
COLUMBIA       CLEAR     27  27 100 CALM      30.19F
FAYETTEVILLE   PTCLDY    30  25  80 CALM      30.19F
LEWISBURG      CLEAR     22  20  92 CALM      30.20F
MCMINNVILLE    CLEAR     25  25 100 CALM      30.19S
SHELBYVILLE    CLEAR     25  25 100 E3        30.21F
TULLAHOMA      CLEAR     25  23  93 CALM      30.19F
WINCHESTER     CLEAR     25  23  93 CALM      30.21S
$$


...KEY TO REMARKS...
VSB - VISIBILITY IN MILES
WCI - WIND CHILL INDEX
HX  - HEAT INDEX




USA.gov is the U.S. government's official web portal to all federal, state and local government web resources and services.